Wind_Speed
14 14 14 14 15 15 15 15 15 15 15 15 15 15 15 16 16 16 16 17 17 18 18 18 18 17 17 16 15 15 15 15 15 16 16 15 15 14 15 14 14 14 15 15 16 16 16 18 18 19 19 18 19 16 16 18 16 14 16 17 17 16 15 10 9 10 8 3 3 3 6 5 5 8 9 16 19 14 18 19 17 18 14 12 13 15 14 12
13 14 14 14 14 14 15 15 15 15 15 15 15 15 15 15 15 15 15 16 16 17 17 17 17 17 17 16 16 15 15 16 16 16 15 15 15 14 13 13 13 14 14 14 15 15 15 16 17 19 18 17 17 16 16 19 19 17 17 18 18 16 12 9 8 7 6 4 2 2 5 5 4 7 7 11 15 14 16 19 19 15 13 13 16 17 14 13
13 13 13 14 14 14 15 15 15 15 15 15 14 15 14 15 15 15 15 15 16 16 17 17 17 17 16 16 16 15 15 15 16 17 15 15 14 13 13 13 13 13 13 14 14 14 14 14 15 17 17 16 15 16 17 18 20 19 19 19 18 17 12 8 9 7 5 4 2 2 4 5 4 6 8 11 14 16 16 16 17 15 15 16 17 15 12 12
13 13 13 13 14 14 14 15 15 15 15 15 14 15 15 15 14 15 15 15 15 15 16 17 17 17 16 16 15 15 15 12 15 17 14 14 14 13 13 12 12 12 12 13 14 14 14 13 15 16 16 16 16 16 17 18 19 19 21 21 17 15 13 9 10 11 8 6 4 3 5 6 6 8 8 10 14 15 13 11 13 14 14 15 15 13 11 11
12 13 13 13 14 14 14 14 14 15 15 15 15 14 15 15 14 14 15 15 15 14 15 15 16 17 15 16 15 14 10 5 13 19 12 13 14 12 12 11 11 11 12 13 13 14 15 15 15 17 18 17 17 18 19 19 18 18 21 23 19 12 11 10 9 10 11 11 10 6 7 7 7 9 8 9 13 13 11 11 12 14 14 13 13 11 10 10
12 13 13 13 14 14 14 14 14 14 15 15 15 15 14 15 14 14 14 15 15 14 14 14 15 15 15 15 13 13 8 6 16 19 12 12 13 12 12 11 10 11 11 13 14 15 16 18 18 19 19 19 19 20 20 19 20 20 19 21 21 16 12 10 7 10 11 12 12 10 9 8 7 9 9 10 11 10 11 14 12 12 15 13 12 10 9 10
13 13 13 13 14 14 14 14 14 14 14 15 15 15 14 14 15 14 14 14 15 14 14 13 14 14 14 14 12 13 10 11 20 18 13 13 11 11 11 10 10 10 11 13 15 15 16 17 19 19 19 19 19 20 19 19 21 22 20 17 19 19 16 12 8 10 11 12 12 11 10 9 10 10 10 10 8 10 12 15 13 14 18 13 9 9 7 8
13 13 13 14 14 14 14 14 14 14 14 14 14 15 14 14 15 15 14 14 14 15 14 13 13 13 13 12 12 10 8 15 21 17 15 15 12 11 10 10 10 9 10 12 14 14 15 16 18 18 18 18 17 18 19 19 21 24 22 16 15 17 17 16 13 11 11 12 13 13 12 11 12 10 10 11 8 11 14 15 14 15 16 12 9 9 7 8
13 14 14 14 14 14 14 14 14 14 14 14 14 14 14 14 14 15 15 14 14 14 14 13 12 12 12 12 11 6 9 19 19 15 16 16 14 13 12 11 10 9 9 11 13 13 14 15 17 18 17 16 16 18 18 20 21 22 24 20 15 15 16 16 16 15 14 14 13 14 15 14 14 12 12 13 10 13 16 14 14 16 15 11 9 9 8 9
14 14 14 14 15 15 15 14 14 14 13 14 14 14 14 14 14 15 15 14 13 13 13 12 11 11 10 12 10 5 12 22 18 16 16 15 15 14 14 13 11 10 8 9 12 14 14 13 14 16 15 15 16 17 19 21 19 15 18 21 19 16 15 15 15 16 15 15 15 15 17 16 15 15 16 15 13 14 15 13 15 18 17 13 10 9 10 11
15 15 15 15 15 15 15 15 14 14 13 14 14 14 14 13 14 14 14 14 13 12 12 12 11 11 10 12 11 9 18 22 18 18 16 14 15 14 14 13 11 10 8 9 11 14 15 12 12 13 14 15 15 16 19 22 19 13 13 17 21 19 16 16 16 16 16 15 16 16 17 18 16 18 18 16 16 16 14 14 16 16 14 12 10 10 12 12
15 15 15 15 15 15 15 15 15 14 14 14 14 14 13 13 13 13 13 13 12 12 12 12 11 11 11 12 12 16 21 20 17 17 16 15 15 14 14 12 11 10 9 10 11 13 16 15 15 14 12 12 13 15 17 20 20 16 14 15 18 20 20 20 18 17 17 16 16 15 18 20 19 20 20 16 15 15 16 15 15 15 14 11 10 12 13 14
16 16 16 16 16 16 16 15 15 15 14 14 14 14 14 13 13 13 13 12 12 12 11 12 12 12 12 11 13 18 20 18 17 16 16 16 15 14 14 12 12 12 11 12 10 12 17 18 19 17 11 10 11 14 14 15 19 18 16 15 16 19 22 22 21 19 18 16 15 16 19 22 22 23 22 19 17 15 17 17 15 16 16 13 12 13 15 16
16 16 16 16 16 16 16 15 15 15 15 14 14 14 14 13 12 12 12 11 11 11 11 12 11 12 14 12 14 16 16 18 18 16 16 15 15 15 14 12 12 13 13 14 13 14 18 19 19 17 14 13 11 13 13 12 17 18 17 17 18 19 20 21 22 21 20 18 16 17 19 20 21 24 24 22 19 17 17 17 16 16 17 15 13 14 17 17
16 16 16 16 16 16 16 16 15 15 15 15 14 14 13 13 12 11 11 11 11 10 11 12 11 13 13 10 13 14 15 18 17 17 17 14 14 14 14 13 11 12 13 13 15 16 17 18 18 15 13 15 11 10 13 14 16 18 18 19 20 20 19 18 22 22 21 19 17 18 18 17 21 23 26 25 21 19 17 17 17 16 17 16 13 16 18 19
16 16 16 16 16 16 16 16 15 15 15 15 14 14 13 12 12 11 11 10 9 10 10 9 10 11 9 9 13 13 14 17 17 17 16 15 13 11 13 13 10 11 11 12 13 14 16 16 16 13 10 14 15 11 13 15 16 18 20 20 19 21 21 17 20 21 21 19 19 20 19 18 18 16 23 23 19 19 19 18 17 17 18 16 14 18 20 21
17 17 17 17 16 16 16 16 16 15 15 15 15 14 13 12 12 11 11 10 9 9 9 8 8 8 8 10 10 9 12 16 17 16 16 16 13 11 14 12 9 11 10 11 12 11 14 14 13 14 12 14 16 15 16 17 16 17 20 20 18 20 22 18 18 20 21 20 19 20 21 19 11 9 18 18 17 19 19 19 18 18 19 17 15 19 22 22
18 18 18 18 17 16 16 15 16 15 15 15 15 13 12 12 12 11 11 10 10 9 7 8 7 5 7 7 4 5 12 15 16 16 17 17 14 14 14 9 9 10 9 10 12 11 12 12 11 13 14 14 16 18 19 16 15 16 18 20 19 18 20 20 17 17 21 21 20 19 21 22 14 9 14 16 16 18 19 20 19 20 21 18 17 21 23 24
18 18 18 18 18 18 16 16 15 15 15 15 14 13 12 12 12 12 13 11 10 8 6 9 9 6 4 7 8 10 14 15 15 16 16 16 15 14 11 9 10 10 12 12 12 13 13 12 13 15 16 17 17 19 19 14 12 14 16 19 19 16 18 20 15 14 18 20 21 20 19 21 21 16 14 15 16 17 18 20 20 21 22 20 19 21 25 25
18 18 18 18 18 18 17 17 16 15 15 15 14 12 11 11 11 13 15 12 10 11 10 11 13 11 7 7 9 14 15 14 13 14 16 15 12 11 10 11 12 13 15 14 12 13 13 14 15 16 16 15 17 19 17 12 8 8 11 16 19 17 16 19 16 13 15 16 18 20 19 18 21 20 17 16 17 17 19 21 21 23 23 21 20 22 26 26
20 20 19 19 19 18 17 17 16 16 15 15 14 12 10 9 10 12 17 15 12 13 13 13 14 13 13 10 10 14 14 12 12 13 17 15 10 11 13 13 15 17 16 14 12 11 13 16 16 16 14 13 15 18 15 12 9 8 8 11 16 16 15 18 17 12 13 15 15 17 19 19 20 21 19 17 16 18 21 21 22 23 22 23 24 24 27 26
20 20 20 20 20 19 18 16 17 16 15 15 14 12 10 11 12 12 16 17 11 12 14 14 14 14 15 16 17 17 13 12 14 15 17 15 11 13 14 15 18 18 16 15 13 12 14 17 16 14 12 11 11 13 13 11 11 13 12 11 14 15 15 16 14 9 10 14 15 16 18 19 20 19 18 17 16 17 20 22 22 22 21 23 25 26 27 25
20 20 20 20 21 21 20 17 16 16 15 15 14 12 11 12 13 12 15 16 11 10 13 15 15 14 14 16 20 21 17 15 15 17 19 15 14 14 14 16 18 16 16 17 15 13 14 15 15 14 12 11 11 10 11 12 13 15 15 15 14 15 16 15 13 13 13 13 15 15 16 18 16 15 15 15 16 16 19 22 22 21 20 21 24 26 27 25
19 19 19 19 20 21 20 18 17 16 15 15 14 13 12 12 12 12 13 16 14 10 10 14 15 14 14 14 18 20 19 17 14 17 20 16 17 16 14 16 17 16 17 18 17 15 12 10 12 13 11 12 13 13 13 14 16 17 18 18 15 14 17 13 10 12 13 14 15 13 15 18 17 16 16 16 17 16 18 21 22 21 19 19 24 27 27 25
19 19 19 18 19 19 20 19 17 16 14 14 14 13 12 12 10 10 12 14 13 9 9 12 13 13 15 16 18 18 18 18 16 16 19 16 18 17 14 16 17 17 17 16 16 18 14 9 11 11 10 12 14 14 15 16 16 17 19 20 17 14 16 13 8 11 13 14 17 17 14 14 18 19 18 18 20 19 18 20 21 20 19 20 23 27 27 24
18 18 18 17 18 18 19 18 17 15 13 14 15 13 12 11 9 8 10 12 12 10 9 9 7 9 14 17 16 13 15 19 17 16 19 16 18 17 14 15 17 16 15 15 15 17 14 9 10 13 12 14 15 15 16 17 18 17 17 21 19 13 13 13 11 13 15 11 12 18 16 11 15 20 20 20 21 21 19 19 21 19 19 22 23 27 27 23
16 16 16 16 16 17 17 17 16 13 11 12 13 12 11 10 7 5 6 11 11 9 9 9 8 7 10 13 15 16 13 17 18 18 20 17 18 18 15 14 16 14 12 12 15 17 15 9 8 12 13 15 16 16 15 18 19 15 11 16 19 14 11 12 13 15 14 9 7 15 18 13 12 18 21 21 20 21 20 20 22 22 23 23 25 28 27 25
14 14 13 14 15 15 16 17 16 14 13 14 12 10 10 8 5 2 4 6 5 7 8 10 11 9 10 11 18 19 9 10 20 21 20 17 17 19 17 14 15 14 11 13 14 13 15 15 12 13 14 14 16 15 14 18 20 13 8 12 17 16 14 13 16 17 13 10 10 14 18 13 9 15 19 20 20 20 20 20 21 24 25 25 28 27 25 26
14 13 12 12 13 14 15 16 15 15 16 15 12 10 10 6 3 4 7 6 3 7 8 10 10 10 10 12 19 20 10 9 16 18 18 18 18 18 15 13 13 14 14 16 15 7 8 15 15 14 16 14 14 14 13 18 19 10 8 12 14 15 16 14 16 16 12 12 12 13 18 14 8 15 19 17 19 20 19 18 19 22 23 26 30 28 26 24
13 13 11 10 12 13 13 15 15 16 16 14 12 11 10 7 6 7 8 6 5 7 8 9 9 9 12 15 19 21 16 11 11 13 18 19 19 18 14 12 12 14 15 17 19 11 5 11 14 16 17 11 8 10 11 15 16 9 8 13 13 13 14 14 15 16 11 11 13 13 17 15 9 13 18 20 20 18 16 16 16 18 20 25 27 26 26 19
13 13 11 10 11 11 12 14 14 15 15 14 13 12 10 9 10 11 8 6 8 9 9 9 9 10 14 16 18 21 19 14 13 16 19 19 20 20 16 14 13 13 14 16 19 16 10 11 16 18 17 10 6 9 11 14 15 11 10 14 14 13 14 14 15 14 9 8 13 15 15 15 10 8 12 14 14 14 14 15 16 16 18 20 20 23 24 16
15 13 12 11 11 11 12 13 12 13 12 13 14 13 11 11 14 15 11 7 7 8 10 11 11 12 14 15 16 20 20 16 17 19 20 20 21 22 19 17 16 14 15 16 17 16 14 14 16 16 16 12 10 11 13 15 16 14 15 16 14 10 10 11 10 10 9 8 11 12 12 14 11 6 8 10 12 16 17 17 21 19 18 19 20 25 25 18
15 14 13 12 11 10 12 11 11 11 11 12 14 15 14 13 14 16 17 13 6 5 7 10 11 11 14 15 16 19 20 17 18 20 20 20 20 21 21 19 18 16 15 15 17 17 15 15 17 17 16 16 14 14 14 15 17 18 18 17 13 8 6 8 7 7 10 10 9 10 9 11 9 7 8 10 15 20 21 21 24 23 23 25 28 30 26 20
14 13 13 12 11 11 11 11 11 11 11 14 15 16 17 16 14 14 19 19 12 5 5 8 10 11 13 15 16 19 21 19 18 19 20 22 21 21 22 21 20 18 15 13 16 18 15 14 19 20 17 16 18 17 13 13 17 20 18 17 14 10 8 7 6 5 7 7 9 10 8 10 11 9 10 12 14 17 19 18 17 18 21 23 24 23 20 18
14 13 12 11 11 10 11 11 10 11 13 16 17 18 20 19 15 16 18 19 17 11 9 10 11 13 15 16 15 17 22 20 18 20 21 23 23 21 22 23 22 21 17 14 14 16 15 13 17 22 18 15 20 19 13 12 16 18 18 18 16 14 12 7 3 2 5 4 6 10 9 8 6 6 11 14 13 13 13 11 10 12 14 15 16 15 14 13
15 14 13 11 11 10 11 11 10 12 15 18 19 21 23 19 16 17 15 14 17 16 14 13 13 16 17 16 15 16 20 21 20 21 21 22 23 22 21 21 22 22 20 16 13 13 15 12 12 19 19 15 17 19 16 15 13 12 17 20 15 12 12 10 5 3 3 6 5 9 11 9 6 7 12 12 12 13 12 11 11 10 9 9 11 9 7 8
16 15 14 12 11 9 10 11 11 13 16 20 21 22 21 19 18 18 13 10 13 14 15 15 15 17 17 16 17 17 19 20 20 22 22 21 22 22 22 20 21 23 21 17 14 11 12 11 10 16 19 17 16 16 17 18 14 12 16 18 13 9 11 11 6 5 6 7 8 9 11 12 10 10 13 14 12 11 10 11 12 9 8 8 7 5 4 5
14 14 13 11 10 9 10 11 11 13 17 20 23 22 19 18 19 19 15 11 11 13 16 17 15 14 15 17 17 16 19 20 19 20 21 19 17 19 22 21 20 22 21 18 15 11 10 12 11 15 17 17 17 16 17 18 18 17 13 12 13 11 11 11 8 6 6 6 7 9 11 12 12 10 15 16 14 12 11 10 10 9 7 6 4 3 3 4
12 11 10 9 9 9 9 11 11 14 19 21 22 22 21 20 19 18 16 13 12 13 15 17 16 13 13 16 16 15 18 20 18 19 19 18 17 17 19 18 18 19 19 19 18 13 11 12 11 12 15 16 17 19 20 18 19 20 14 12 15 13 11 11 11 10 9 6 5 8 10 8 6 8 12 13 16 18 14 10 9 8 6 4 2 1 1 2
9 6 8 9 9 9 8 10 12 15 19 21 21 19 18 19 18 18 17 14 13 13 14 15 16 14 12 14 16 14 14 15 13 15 17 16 15 16 15 14 15 16 16 17 18 15 13 14 12 10 11 13 16 20 22 20 19 21 20 17 16 14 12 10 11 11 11 7 5 7 7 4 9 10 9 13 17 18 15 11 10 9 7 6 5 4 5 3
8 4 8 10 10 9 8 9 12 16 18 20 19 18 17 17 17 16 17 17 15 15 15 14 14 14 13 13 14 13 13 13 11 13 18 16 10 12 15 13 13 14 15 16 17 16 15 14 14 13 13 15 16 16 19 20 18 18 22 22 19 17 14 10 9 12 14 10 7 7 4 5 11 12 9 11 13 12 13 14 12 11 10 9 8 8 7 5
7 6 10 10 9 8 7 9 12 14 16 17 16 16 17 18 17 14 14 16 16 15 15 13 13 14 13 11 12 13 13 14 13 13 16 18 12 10 15 17 13 12 15 16 16 19 17 13 13 17 17 15 13 10 12 16 16 15 17 20 21 20 18 15 10 9 13 13 11 12 6 4 9 13 12 12 11 11 13 13 12 12 10 10 10 8 8 7
5 5 7 8 7 6 6 8 11 14 16 16 14 14 14 16 16 14 13 13 13 14 15 14 13 15 14 12 11 11 11 12 14 12 11 15 14 10 12 16 13 10 13 13 12 17 19 14 14 17 15 14 14 12 12 15 17 18 17 16 18 19 19 19 14 7 9 11 11 12 7 4 8 13 13 13 12 12 12 12 13 12 10 10 10 9 9 10
4 4 6 8 6 3 5 7 9 12 13 14 14 14 14 13 13 14 15 13 12 13 14 14 14 14 14 13 11 11 10 10 12 11 9 10 11 8 10 14 14 11 10 10 11 15 15 11 10 11 9 11 14 13 13 15 18 22 21 18 18 19 18 17 13 8 9 11 10 9 4 5 8 11 12 13 14 14 13 13 13 12 11 11 11 11 12 13
7 7 7 9 7 2 4 7 8 8 9 10 12 13 13 13 12 12 13 12 12 12 11 11 12 12 12 12 12 14 13 11 10 10 9 7 6 5 8 12 15 13 11 13 15 15 13 11 12 11 7 6 7 6 8 10 14 20 21 18 17 19 20 17 14 13 13 13 14 12 3 7 9 10 12 15 18 16 15 14 12 11 12 12 13 13 14 14
6 6 6 8 7 3 4 6 6 6 7 7 8 9 10 11 10 10 11 10 9 9 10 10 9 10 11 12 13 15 14 14 12 9 9 10 6 4 6 8 11 13 15 18 17 14 12 12 14 15 12 8 7 10 12 14 12 17 21 17 16 16 18 18 16 16 16 13 15 17 11 12 12 11 12 13 15 14 13 14 13 12 14 14 15 15 15 16
4 5 6 6 5 4 5 6 5 4 6 7 6 6 7 8 7 7 10 10 8 7 9 9 9 9 11 12 13 15 14 15 15 12 11 11 6 5 7 7 9 13 14 14 14 13 12 10 12 16 14 9 7 14 16 9 11 9 12 11 11 12 13 15 15 14 13 10 8 7 12 17 15 13 14 13 13 13 12 12 12 13 15 16 17 17 16 16
4 5 6 6 5 6 7 6 4 3 4 6 4 3 3 5 5 5 6 7 7 6 7 8 8 9 10 11 11 13 14 14 15 13 12 11 6 4 6 7 9 10 9 9 11 12 11 10 13 15 14 13 9 9 16 11 5 7 0 1 1 4 7 7 6 6 8 8 4 6 12 16 15 13 14 14 13 12 12 12 13 16 19 18 17 16 16 16
3 3 5 7 6 7 8 5 3 3 3 6 5 3 3 2 3 3 2 5 5 4 4 7 6 6 8 11 11 10 12 13 11 9 11 11 8 8 8 6 7 8 8 9 10 11 11 9 11 13 12 16 17 12 14 15 5 3 4 5 6 5 7 7 5 4 4 8 12 13 14 16 14 11 15 19 19 17 14 13 15 17 18 18 16 15 15 15
3 3 5 7 7 8 8 7 6 4 0 5 8 9 8 5 4 5 4 3 3 1 1 3 3 1 2 6 8 9 12 13 10 9 13 13 10 10 9 7 6 8 9 10 10 11 11 8 8 11 11 14 19 19 18 18 14 7 4 4 4 5 6 8 10 10 10 10 13 16 18 18 14 11 12 16 18 18 18 16 17 16 15 16 16 15 16 16
4 5 6 7 8 7 7 7 6 5 3 3 10 12 9 6 5 5 7 8 6 4 3 1 3 3 2 5 11 15 16 16 15 15 17 15 12 10 9 8 7 7 9 11 10 9 9 8 7 10 10 12 14 15 18 20 20 17 14 11 5 1 3 7 12 14 15 12 8 8 10 11 10 8 7 9 14 19 22 20 21 21 20 20 19 16 15 15
7 6 7 9 9 8 8 8 8 7 6 5 7 9 8 6 5 4 5 7 6 5 4 3 4 3 1 7 14 16 15 15 17 17 16 16 16 13 13 14 12 9 9 10 10 10 9 9 10 11 10 10 10 8 10 14 15 17 23 23 16 9 4 3 7 10 13 11 7 7 9 9 9 10 9 10 15 22 27 26 26 26 26 26 25 23 20 18
Wind_Direction
280 281 282 283 284 286 287 289 291 291 294 295 297 299 298 299 297 296 293 288 286 283 282 280 278 276 272 270 268 266 264 264 263 261 260 258 256 254 253 252 248 243 238 234 232 229 226 225 221 220 217 217 215 204 215 218 208 217 222 229 234 231 236 234 217 215 226 202 163 212 186 211 232 204 215 201 195 201 199 196 202 202 189 181 173 162 161 161
281 281 282 283 283 285 286 288 290 291 292 293 296 297 299 300 298 298 295 291 288 284 282 279 277 275 272 270 267 265 265 265 264 262 260 258 255 255 254 251 248 241 237 233 230 229 225 225 222 222 217 215 221 209 212 221 212 212 218 227 231 229 234 230 223 215 214 210 163 168 178 197 215 196 198 187 192 195 190 203 207 194 182 170 165 167 160 164
281 281 282 282 284 285 286 288 289 290 291 292 294 295 298 299 299 299 297 295 290 286 282 278 276 274 272 269 267 267 265 267 269 264 258 257 256 255 253 249 246 239 234 229 224 223 219 221 221 221 216 211 218 214 211 221 219 215 218 229 230 231 241 234 229 224 220 223 173 183 194 199 208 189 194 185 183 186 181 193 197 178 167 164 167 169 160 166
283 283 284 284 285 285 286 288 288 290 290 292 293 294 297 297 299 298 297 296 292 290 284 279 276 272 271 269 268 265 266 277 273 265 258 257 256 254 252 248 244 237 230 224 220 218 209 208 218 215 209 211 215 213 212 217 219 216 221 228 227 235 248 242 233 227 231 225 202 223 207 205 206 186 194 192 182 186 181 182 190 174 160 162 168 168 167 170
285 285 286 286 286 287 288 288 289 290 291 292 292 292 294 295 298 298 298 297 294 293 287 283 276 272 271 267 266 263 267 280 261 262 264 258 256 253 252 248 242 234 225 219 214 213 203 196 213 213 204 212 216 215 217 216 219 220 225 229 231 245 250 239 228 220 223 222 221 223 212 219 211 195 198 194 191 195 185 176 191 189 168 163 172 171 170 170
286 287 288 288 289 290 290 290 291 292 293 292 292 292 292 293 295 296 297 296 295 295 293 289 280 273 269 264 264 257 237 211 248 260 266 260 257 254 252 248 242 233 220 215 209 209 204 195 206 212 207 214 217 218 220 217 221 226 229 232 235 244 242 229 222 223 224 218 218 217 223 232 213 210 207 200 201 190 178 178 192 203 183 169 177 179 169 172
288 288 289 289 290 291 291 291 292 293 294 292 293 292 291 292 292 294 295 296 296 295 295 294 287 278 269 262 258 251 229 226 248 255 258 260 258 253 251 245 239 230 218 211 207 207 205 199 205 210 211 218 220 222 223 219 223 227 232 236 235 237 234 228 226 234 229 212 211 216 230 226 211 219 204 201 202 171 177 187 196 206 189 172 177 184 178 183
289 289 290 291 291 292 291 292 292 294 294 294 294 292 292 291 289 290 291 294 295 296 298 296 293 283 272 262 251 249 233 239 250 251 252 257 257 254 248 241 234 223 216 209 204 204 203 201 206 208 214 221 223 224 224 222 224 228 231 234 235 234 233 234 232 235 232 220 219 221 227 220 212 223 208 205 205 184 191 194 201 211 189 170 176 185 198 206
290 291 292 292 291 292 292 292 293 294 295 296 295 293 293 290 288 289 289 292 294 296 297 296 297 287 275 262 248 237 239 247 253 251 249 253 254 253 248 240 231 218 212 204 197 195 197 206 210 207 214 226 228 228 225 221 224 231 232 231 235 238 234 235 233 232 232 225 225 225 223 219 217 227 219 211 211 200 195 189 206 215 196 183 187 192 211 216
292 292 292 292 292 292 292 293 293 294 295 296 296 295 295 292 290 288 288 291 291 293 295 296 296 287 275 258 238 213 247 251 253 250 245 249 250 249 248 242 235 226 215 205 197 194 194 203 213 212 221 232 233 230 223 218 221 233 236 232 234 240 237 234 232 230 232 227 225 225 222 220 221 228 222 211 213 207 193 190 211 216 203 194 192 205 219 214
293 293 292 292 291 292 292 293 293 294 294 295 296 297 297 296 293 290 290 289 289 290 290 291 289 284 272 255 229 214 245 249 248 250 243 243 244 243 247 243 240 231 213 209 207 201 193 194 208 213 224 230 231 231 224 220 223 237 242 234 233 236 237 233 230 227 226 226 223 221 223 222 220 223 222 213 210 207 196 195 213 225 218 199 190 210 224 216
294 293 292 292 292 292 292 293 293 293 293 294 297 299 300 300 298 297 293 290 289 288 288 287 285 280 267 254 234 226 241 247 244 246 241 240 240 239 241 238 237 224 202 209 222 211 193 197 205 200 215 225 226 231 229 225 227 238 241 235 234 235 238 233 228 225 222 224 223 218 223 222 219 221 219 211 205 203 204 205 210 226 231 215 199 213 226 220
293 293 292 292 292 292 292 293 292 291 291 293 296 298 301 303 305 305 297 290 285 283 283 280 277 274 264 252 242 237 240 244 241 239 238 238 236 236 234 231 230 219 204 203 221 224 204 207 205 196 218 227 221 229 225 222 223 231 236 235 239 235 236 232 225 224 221 223 215 207 220 223 222 225 220 214 210 204 207 211 211 219 228 223 209 218 225 220
293 293 292 292 292 291 291 291 290 290 290 291 294 297 301 304 307 307 299 288 280 278 277 275 273 270 261 247 247 244 236 238 239 235 235 234 232 233 228 228 231 225 219 207 211 224 214 213 201 195 223 219 218 238 225 218 220 226 232 233 237 236 235 227 219 217 214 216 203 201 225 229 225 222 214 212 209 204 206 210 212 218 226 221 211 223 226 219
293 293 292 292 291 291 291 290 289 289 288 290 291 294 300 303 305 305 301 289 280 277 273 274 271 268 265 255 255 248 233 235 237 234 233 229 229 235 232 230 234 230 227 218 218 223 217 214 199 196 225 216 217 240 221 220 222 220 227 228 226 233 240 222 208 208 206 207 198 206 228 234 238 227 206 204 205 205 209 210 212 216 223 220 215 228 227 217
292 292 292 292 292 291 291 289 288 287 287 289 290 294 299 301 300 300 303 297 285 277 272 272 273 271 265 251 254 247 233 233 232 231 229 226 224 232 239 235 236 230 221 220 223 224 217 207 196 201 225 219 219 225 216 219 219 215 221 227 221 222 235 218 194 202 207 206 204 211 223 232 247 221 187 192 203 208 212 214 212 212 222 220 218 230 226 217
289 289 290 290 291 291 291 290 289 287 286 287 289 293 297 299 298 297 300 299 291 280 271 272 276 276 258 246 261 259 237 230 226 225 225 224 214 217 237 236 233 230 219 217 214 213 213 199 196 210 214 215 217 218 221 219 214 214 215 225 228 219 227 217 191 200 210 210 209 211 221 231 237 182 179 193 203 210 213 216 214 212 222 220 221 231 221 216
287 287 286 287 288 289 290 290 289 287 285 285 288 292 296 298 295 295 296 293 290 279 275 285 273 278 279 249 238 232 227 226 221 219 224 226 217 220 235 231 224 221 205 207 204 196 205 200 205 218 213 213 213 212 220 220 213 215 210 219 229 219 220 220 202 200 205 206 209 209 218 228 228 197 199 204 203 210 214 217 215 215 224 222 221 227 217 215
289 288 286 285 284 285 286 288 288 287 285 284 287 292 298 299 298 303 297 287 287 275 275 286 250 212 253 228 205 215 221 226 222 218 224 227 226 227 226 212 208 202 187 194 199 192 200 206 210 219 216 212 213 211 217 228 227 225 218 215 223 219 216 222 216 197 195 201 210 215 218 223 227 220 206 203 205 212 216 217 215 216 224 224 220 220 216 216
289 289 288 286 285 283 282 283 285 286 285 284 286 291 299 308 316 313 293 279 286 274 253 258 241 213 231 244 229 228 230 231 218 215 225 225 224 219 207 199 190 188 188 193 199 193 199 211 213 218 218 214 215 215 223 247 260 248 231 215 218 222 214 217 217 192 190 205 212 218 224 224 227 226 215 210 212 215 215 214 213 216 222 223 219 216 215 217
286 285 286 285 285 284 282 280 280 281 283 283 283 288 294 299 300 290 280 279 285 278 260 250 247 232 231 238 226 220 230 233 207 209 226 221 208 199 196 191 184 191 196 193 193 191 204 219 219 219 221 219 216 217 230 252 255 245 242 223 219 225 218 210 205 184 189 212 217 218 226 228 229 230 219 208 211 214 213 211 213 217 220 222 219 215 215 217
284 283 282 282 281 282 282 280 278 277 278 279 280 284 283 281 282 277 282 286 269 262 272 265 257 247 233 227 222 215 210 214 206 207 222 215 194 191 196 194 189 194 196 192 192 194 212 225 222 218 217 213 208 212 228 240 235 233 239 239 225 222 218 203 192 190 194 209 224 225 225 230 231 228 214 204 214 217 212 212 216 215 215 221 219 215 215 216
284 282 280 280 278 277 278 278 278 275 274 275 276 278 277 279 287 289 292 292 270 251 268 267 258 254 244 231 231 227 205 199 204 206 218 210 185 186 196 197 195 198 198 197 200 201 216 225 219 215 210 208 213 218 227 230 229 230 232 235 230 219 215 205 199 215 214 211 226 229 227 230 225 213 204 205 215 217 213 212 213 212 211 218 218 214 214 216
282 281 280 279 277 275 274 274 275 274 272 272 272 273 275 280 290 296 298 297 287 260 244 250 250 246 241 226 231 232 209 200 201 208 224 212 185 191 199 199 200 204 204 202 209 217 226 222 204 204 206 209 219 223 223 224 224 227 228 231 231 220 218 220 212 210 211 217 226 232 232 224 210 203 206 212 212 208 209 207 208 210 209 216 219 214 213 216
282 280 279 277 277 276 273 271 270 271 271 268 268 268 271 279 289 300 308 308 296 267 237 249 251 239 229 220 227 227 209 209 202 207 232 215 187 196 200 203 208 208 209 207 215 228 233 213 196 206 214 213 217 220 217 219 222 225 226 228 235 234 224 222 209 198 212 222 216 219 231 217 201 207 210 208 208 205 204 204 206 207 206 214 217 212 212 216
284 281 279 276 275 274 273 270 266 267 270 266 262 261 266 274 285 306 313 301 281 254 240 244 238 227 222 222 226 206 200 219 205 203 232 216 188 197 201 207 212 212 215 212 217 228 227 215 215 221 221 215 217 222 218 216 224 229 224 222 233 246 231 215 207 208 221 233 211 212 230 221 197 206 207 201 206 207 204 202 202 203 208 215 216 211 211 215
290 286 283 278 274 272 271 269 264 259 258 261 257 253 259 266 277 313 312 284 258 223 214 214 210 209 208 217 207 179 194 222 200 200 224 209 186 197 206 206 210 216 216 211 220 225 222 221 219 212 212 214 217 223 218 212 223 233 222 214 223 233 228 217 221 222 227 244 224 214 228 228 200 202 199 194 203 205 205 208 205 206 210 213 215 212 213 220
297 293 289 283 276 271 268 266 264 252 240 248 253 244 248 255 258 266 275 277 236 188 195 208 221 218 201 205 191 179 191 198 186 201 216 201 184 193 208 209 210 218 210 208 216 215 219 224 216 203 204 211 217 222 216 209 220 232 220 211 215 220 223 223 229 232 234 239 234 217 218 225 218 204 192 188 202 204 204 209 209 212 213 214 215 211 218 228
302 299 295 288 280 273 268 264 260 252 243 246 247 235 237 239 217 229 248 263 232 202 206 214 230 223 200 196 188 187 194 177 186 207 206 195 185 188 208 216 215 221 213 216 223 212 215 218 212 204 202 211 220 219 210 207 214 222 214 212 213 218 223 225 230 234 232 234 242 224 210 220 215 188 185 191 205 206 202 201 205 209 209 213 214 209 222 232
307 304 300 292 283 277 271 265 257 253 248 242 234 226 223 208 196 224 232 236 244 218 204 214 221 203 189 188 188 194 202 197 194 192 187 191 191 190 208 214 214 223 216 221 230 233 230 208 202 201 204 217 223 207 199 202 208 209 207 209 210 216 220 224 231 233 230 231 242 228 209 221 214 177 195 209 207 205 199 193 197 203 206 212 214 212 225 234
310 308 304 293 285 279 274 267 257 252 246 235 225 214 205 198 209 230 224 229 252 223 202 211 200 185 185 187 192 196 200 202 190 177 178 188 194 197 209 209 208 217 215 221 227 229 232 214 204 206 214 228 226 209 207 207 212 215 215 212 207 210 214 219 223 226 232 233 234 226 206 218 225 183 192 197 185 188 191 196 202 207 212 214 216 222 229 234
310 308 305 296 286 277 273 270 260 253 243 232 218 198 193 207 218 228 228 237 250 211 200 204 190 188 190 190 196 194 195 198 190 186 187 187 193 200 207 207 201 205 210 214 217 218 222 217 207 209 218 221 219 216 207 207 214 215 217 218 211 207 212 219 218 215 229 234 229 223 204 213 226 184 164 164 166 173 171 187 206 209 210 208 216 228 229 228
309 307 303 296 288 276 269 271 263 247 232 223 210 192 198 221 224 222 225 228 222 182 198 203 194 196 194 197 202 194 195 199 191 193 196 193 198 203 208 211 204 207 215 212 209 208 211 213 209 209 214 213 214 214 199 197 209 212 214 218 215 209 211 224 225 215 224 225 211 210 209 218 214 156 158 189 198 198 194 203 215 217 217 216 221 226 220 215
310 308 303 294 288 277 266 267 260 238 219 209 198 192 208 227 227 221 225 230 233 227 219 211 204 205 202 206 208 196 199 203 194 196 199 198 203 205 208 212 208 212 222 219 212 208 207 211 208 207 209 207 211 219 213 200 206 213 217 221 223 221 218 228 237 232 236 221 195 197 210 227 218 170 173 205 207 203 206 211 212 205 204 206 207 204 195 194
309 307 304 297 288 277 263 262 254 233 215 198 192 201 215 223 223 224 230 234 237 233 223 220 219 220 216 214 214 203 203 206 198 199 202 202 206 207 207 209 208 211 218 219 217 214 217 221 211 207 209 207 210 218 223 216 211 212 217 224 227 226 227 236 258 307 308 286 208 201 210 225 225 180 184 202 202 196 196 188 167 161 168 170 164 164 174 189
306 304 302 298 291 278 261 255 246 231 211 192 196 213 219 220 220 226 235 239 240 236 229 227 225 227 225 217 217 209 205 209 204 202 208 207 209 211 209 209 208 209 215 216 216 216 222 229 211 201 205 209 212 214 218 224 223 210 217 227 229 229 237 246 239 194 253 277 230 209 219 215 199 191 191 190 193 199 198 191 181 167 160 153 145 153 190 211
307 304 301 298 291 280 261 250 239 227 208 195 207 221 223 225 227 231 240 244 240 235 232 234 229 228 228 222 219 211 206 211 208 206 210 209 211 212 209 210 207 208 215 217 220 225 232 241 212 193 203 209 211 219 221 226 231 218 218 228 228 229 241 252 254 199 205 240 229 214 219 214 205 194 185 186 196 196 186 193 197 182 167 160 156 171 206 226
310 306 302 296 286 276 260 248 237 221 203 201 217 226 226 229 232 234 240 245 242 234 234 240 236 228 228 226 223 212 206 210 209 211 213 209 211 210 208 212 207 206 212 214 218 224 233 249 227 198 211 214 209 223 228 223 229 231 230 228 225 230 231 231 239 232 222 233 231 219 213 225 236 207 182 192 198 180 166 180 185 171 173 183 190 222 235 247
319 314 302 297 288 274 255 244 234 213 202 208 221 227 228 233 235 232 234 241 244 238 237 240 238 236 234 231 232 221 209 210 212 217 219 214 211 206 205 211 204 200 207 211 216 217 217 237 231 208 218 217 206 217 225 221 222 229 240 238 227 233 240 231 227 233 235 229 228 228 219 223 227 189 187 193 184 179 184 191 188 178 181 205 218 227 205 234
340 330 288 293 296 275 251 239 225 207 205 215 224 228 231 236 237 233 233 238 239 236 240 244 240 240 238 232 234 231 219 221 220 216 224 228 213 199 203 213 207 199 201 208 217 221 216 222 228 225 226 219 211 215 220 222 219 218 225 230 225 224 231 238 235 236 243 241 227 230 223 152 117 138 185 197 185 194 206 196 192 194 180 174 175 165 162 167
2 338 280 296 302 274 248 234 220 209 214 222 228 233 235 236 238 236 235 238 238 237 244 250 240 236 243 238 234 234 230 239 236 217 229 239 213 192 202 209 207 203 201 206 216 221 219 219 227 231 226 222 223 221 219 225 228 221 219 225 228 225 222 230 233 230 238 247 247 239 224 114 133 144 165 192 183 179 181 167 168 185 180 171 171 169 173 169
2 314 284 300 305 272 240 232 224 215 221 228 229 233 237 239 238 236 235 236 236 236 239 244 237 234 244 245 241 242 236 238 238 224 231 237 225 208 206 200 199 203 200 204 214 218 217 221 233 233 228 231 239 234 224 226 233 234 229 227 228 228 229 234 237 231 233 239 249 252 250 112 159 168 165 186 180 156 162 169 175 185 182 173 170 173 179 163
1 308 295 314 312 267 238 242 237 226 226 231 232 233 236 241 240 237 238 236 232 230 228 232 237 237 242 246 249 250 242 243 244 236 234 231 222 219 206 192 188 196 198 198 204 213 213 219 241 244 243 252 255 248 240 235 234 238 238 233 231 233 234 237 243 261 253 240 241 248 241 125 167 193 193 191 172 155 168 184 193 195 184 173 172 173 174 160
357 340 330 332 330 264 249 269 261 247 239 235 237 238 234 237 240 237 236 232 227 227 226 229 238 240 239 243 248 245 244 253 248 240 240 221 196 191 197 195 195 195 201 202 203 211 211 209 236 251 257 259 251 239 234 233 232 235 237 236 237 240 242 244 245 248 251 246 247 256 243 140 170 193 194 182 162 157 173 188 200 201 186 176 172 168 166 158
358 351 332 323 334 326 270 277 271 268 261 246 246 248 237 234 238 233 231 232 228 225 225 229 236 238 236 240 246 244 244 252 250 241 241 226 177 169 199 209 212 212 217 222 220 221 221 221 235 246 255 255 246 252 274 273 251 236 233 238 242 240 240 248 250 243 243 243 245 251 216 139 167 179 178 178 171 169 182 190 193 190 183 176 168 165 167 165
5 338 326 319 323 349 327 295 275 271 274 260 250 249 238 234 237 229 225 228 225 223 231 238 239 242 241 241 246 245 241 242 244 244 243 235 221 215 216 207 208 212 220 226 225 220 219 226 231 231 235 238 239 258 293 324 304 248 231 235 243 238 235 242 248 249 248 242 245 247 211 158 162 169 162 166 166 164 176 186 183 180 180 176 171 172 175 175
12 321 339 342 329 356 349 318 313 299 263 243 234 245 243 236 235 227 223 226 226 225 236 243 244 245 244 242 245 245 242 238 236 239 244 237 221 213 218 214 213 217 223 228 222 212 206 210 214 214 217 215 223 246 258 309 340 281 231 224 236 232 227 233 240 248 251 251 261 242 181 159 156 158 154 154 154 152 166 180 181 181 181 177 175 177 177 176
13 323 348 9 4 3 344 312 322 318 231 202 208 257 255 230 223 220 221 224 226 228 236 241 244 246 243 240 241 241 239 237 235 235 237 232 227 219 209 215 227 223 216 210 210 212 209 210 216 216 215 210 207 233 238 239 351 3 274 158 236 203 191 203 227 243 242 232 204 153 146 138 130 140 157 169 172 166 173 186 187 182 180 177 174 173 174 179
3 339 6 22 17 9 5 4 2 320 208 163 144 132 112 121 160 173 213 215 208 216 239 239 240 251 243 234 237 239 230 227 226 224 221 218 221 219 196 186 211 214 199 190 197 210 211 213 218 215 218 227 230 235 228 216 211 13 9 17 30 71 116 124 116 112 139 155 161 173 171 149 140 163 186 192 191 178 168 174 180 177 171 168 165 163 169 182
17 20 36 34 24 16 15 22 32 24 249 189 171 145 114 93 106 101 84 121 164 151 169 211 207 228 235 208 211 217 213 210 207 209 217 213 209 213 204 184 195 207 200 190 194 210 218 227 227 209 214 238 243 244 237 220 214 230 282 318 3 56 96 134 139 125 117 129 154 177 180 168 171 197 203 199 195 180 171 173 178 172 158 154 158 157 163 177
51 59 68 54 34 22 15 11 25 43 37 214 187 159 126 98 93 92 93 94 81 66 76 127 161 138 115 175 201 213 217 217 218 222 224 215 202 207 208 189 182 196 203 197 198 211 217 223 220 204 216 239 242 243 240 232 231 239 245 243 226 121 81 127 133 124 120 123 139 160 157 152 160 166 166 184 185 174 174 180 181 175 163 157 159 155 158 176
59 68 75 60 35 28 37 34 34 49 67 108 155 159 151 137 128 136 140 123 105 99 98 104 124 118 183 216 215 222 226 227 229 233 230 214 201 203 211 207 200 200 209 210 215 218 210 208 208 205 222 240 229 219 225 228 236 245 242 235 223 221 241 147 128 126 125 122 113 117 117 117 134 143 151 188 194 181 180 183 182 182 180 176 173 164 161 168
Height
3109 3108 3108 3107 3107 3106 3106 3105 3105 3104 3104 3103 3103 3103 3102 3102 3101 3101 3100 3100 3099 3099 3099 3099 3099 3099 3099 3099 3099 3099 3099 3099 3099 3099 3099 3099 3100 3100 3100 3101 3102 3102 3103 3104 3105 3106 3107 3108 3110 3111 3113 3114 3115 3117 3120 3119 3121 3123 3122 3122 3121 3119 3118 3116 3117 3117 3118 3116 3117 3117 3118 3120 3119 3119 3119 3119 3120 3121 3121 3121 3120 3120 3121 3123 3125 3126 3127 3128
3107 3107 3106 3106 3105 3105 3105 3104 3104 3103 3103 3102 3102 3101 3101 3100 3100 3099 3099 3099 3098 3098 3097 3097 3097 3097 3098 3098 3098 3098 3098 3098 3097 3097 3098 3098 3098 3098 3099 3099 3100 3101 3102 3102 3104 3105 3106 3107 3109 3110 3112 3114 3115 3116 3119 3118 3119 3120 3121 3121 3119 3118 3117 3116 3117 3117 3117 3117 3117 3117 3118 3119 3119 3119 3119 3120 3121 3121 3121 3120 3119 3121 3122 3123 3124 3125 3126 3127
3106 3105 3105 3105 3104 3104 3103 3103 3102 3102 3101 3101 3100 3100 3100 3099 3099 3098 3098 3097 3097 3096 3096 3096 3096 3096 3096 3096 3096 3097 3096 3096 3096 3095 3096 3096 3097 3097 3098 3098 3098 3099 3100 3101 3102 3104 3105 3106 3108 3109 3111 3113 3115 3116 3117 3117 3117 3118 3119 3118 3117 3117 3116 3116 3116 3116 3117 3116 3117 3118 3118 3119 3119 3119 3120 3119 3120 3120 3121 3120 3119 3121 3122 3122 3123 3124 3125 3126
3105 3104 3104 3103 3103 3102 3102 3101 3101 3100 3100 3099 3099 3098 3098 3098 3097 3097 3096 3096 3095 3095 3095 3094 3094 3094 3094 3095 3095 3095 3095 3096 3094 3093 3095 3095 3095 3096 3096 3097 3097 3098 3099 3100 3101 3102 3104 3106 3107 3108 3111 3113 3114 3115 3116 3116 3115 3117 3117 3116 3116 3116 3115 3116 3116 3117 3116 3116 3117 3118 3119 3120 3119 3119 3120 3120 3119 3119 3120 3120 3121 3121 3122 3123 3123 3123 3124 3125
3103 3103 3102 3102 3101 3101 3100 3100 3099 3099 3098 3098 3098 3097 3097 3096 3096 3096 3095 3095 3094 3094 3093 3093 3093 3093 3093 3093 3094 3094 3095 3096 3092 3091 3093 3093 3094 3094 3095 3095 3096 3097 3098 3099 3100 3101 3103 3105 3107 3107 3109 3112 3113 3113 3114 3114 3114 3115 3115 3114 3115 3115 3115 3115 3116 3116 3115 3116 3117 3118 3119 3119 3119 3119 3120 3120 3120 3120 3121 3122 3121 3120 3121 3122 3123 3123 3124 3125
3102 3101 3101 3100 3100 3099 3099 3098 3098 3097 3097 3096 3096 3096 3095 3095 3094 3094 3094 3093 3093 3092 3092 3092 3091 3091 3091 3091 3092 3093 3094 3094 3090 3090 3092 3092 3093 3093 3093 3094 3095 3095 3096 3097 3099 3100 3101 3104 3106 3106 3108 3110 3112 3112 3112 3113 3113 3113 3113 3113 3114 3114 3115 3115 3115 3114 3114 3116 3117 3119 3119 3118 3119 3120 3120 3121 3121 3121 3122 3122 3120 3119 3120 3121 3122 3123 3124 3125
3100 3100 3099 3099 3098 3098 3097 3097 3096 3096 3095 3095 3094 3094 3094 3093 3093 3092 3092 3092 3091 3091 3091 3090 3090 3090 3090 3090 3091 3091 3093 3092 3089 3089 3091 3091 3092 3092 3092 3093 3093 3094 3095 3096 3097 3099 3100 3102 3104 3106 3107 3108 3110 3111 3111 3112 3112 3111 3112 3112 3113 3113 3113 3114 3114 3114 3114 3115 3116 3118 3117 3118 3120 3120 3120 3121 3120 3120 3121 3120 3119 3119 3120 3120 3122 3123 3123 3124
3099 3098 3098 3097 3097 3096 3096 3095 3095 3094 3094 3093 3093 3092 3092 3092 3091 3090 3090 3090 3090 3089 3089 3089 3089 3089 3088 3089 3089 3090 3092 3090 3088 3089 3090 3090 3091 3091 3091 3092 3092 3093 3094 3095 3096 3098 3099 3101 3103 3105 3107 3107 3108 3109 3110 3111 3111 3109 3110 3111 3112 3111 3112 3113 3113 3113 3114 3115 3115 3116 3116 3118 3119 3119 3120 3120 3120 3119 3120 3120 3118 3117 3119 3120 3121 3123 3123 3123
3097 3097 3096 3096 3095 3095 3094 3094 3093 3093 3092 3092 3091 3091 3091 3090 3090 3089 3089 3089 3088 3088 3088 3087 3088 3087 3087 3088 3088 3090 3090 3087 3087 3088 3089 3089 3089 3090 3090 3091 3092 3092 3093 3094 3095 3097 3099 3101 3102 3104 3106 3107 3108 3108 3109 3109 3109 3108 3108 3110 3111 3110 3110 3111 3111 3113 3113 3114 3114 3115 3116 3117 3118 3118 3119 3120 3119 3118 3119 3120 3119 3117 3119 3120 3121 3122 3122 3122
3096 3095 3095 3094 3094 3093 3093 3092 3092 3091 3091 3090 3090 3089 3089 3088 3088 3087 3087 3087 3087 3086 3086 3086 3086 3086 3086 3086 3087 3089 3087 3085 3086 3087 3087 3088 3088 3088 3089 3089 3090 3091 3092 3093 3094 3096 3098 3101 3102 3103 3104 3105 3106 3106 3107 3107 3107 3107 3107 3108 3109 3109 3109 3109 3110 3111 3112 3113 3114 3114 3115 3117 3118 3117 3117 3119 3118 3117 3119 3120 3118 3118 3120 3120 3120 3121 3121 3121
3095 3094 3094 3093 3093 3092 3091 3091 3090 3090 3089 3089 3088 3088 3087 3087 3086 3086 3085 3085 3085 3085 3085 3084 3084 3084 3084 3084 3086 3087 3084 3083 3085 3085 3086 3086 3086 3087 3087 3088 3089 3090 3091 3093 3094 3095 3097 3099 3101 3103 3103 3103 3104 3104 3104 3105 3105 3106 3106 3107 3107 3107 3108 3108 3109 3110 3111 3112 3112 3113 3115 3115 3116 3115 3116 3117 3116 3116 3119 3119 3118 3117 3117 3118 3119 3119 3120 3120
3093 3093 3092 3092 3091 3090 3090 3089 3089 3088 3088 3087 3087 3086 3086 3085 3085 3084 3084 3084 3084 3083 3083 3083 3082 3082 3082 3082 3083 3083 3081 3082 3083 3083 3084 3085 3085 3086 3086 3087 3088 3089 3091 3092 3093 3093 3095 3097 3098 3100 3102 3101 3103 3103 3103 3103 3104 3105 3105 3105 3105 3106 3105 3106 3107 3108 3109 3110 3110 3112 3113 3113 3113 3113 3115 3115 3114 3116 3118 3119 3119 3117 3116 3117 3118 3118 3119 3119
3092 3091 3091 3090 3089 3089 3088 3088 3087 3087 3086 3086 3085 3085 3085 3084 3084 3083 3082 3082 3082 3082 3081 3081 3080 3080 3080 3081 3081 3080 3080 3081 3081 3082 3082 3083 3084 3085 3085 3086 3087 3088 3089 3091 3092 3092 3093 3094 3095 3098 3100 3100 3102 3102 3100 3101 3103 3104 3104 3104 3104 3103 3102 3103 3105 3106 3107 3108 3110 3111 3110 3109 3110 3111 3113 3113 3113 3116 3117 3118 3119 3118 3117 3117 3117 3118 3118 3118
3090 3090 3089 3088 3088 3087 3087 3087 3086 3085 3085 3084 3084 3083 3083 3083 3082 3082 3081 3080 3080 3080 3080 3079 3079 3078 3078 3079 3079 3078 3080 3079 3080 3080 3081 3082 3083 3083 3084 3085 3086 3086 3087 3089 3091 3091 3091 3092 3093 3096 3097 3098 3100 3100 3099 3101 3102 3102 3103 3102 3102 3100 3098 3099 3102 3103 3106 3106 3108 3109 3108 3106 3106 3107 3110 3110 3111 3114 3116 3117 3118 3117 3117 3117 3117 3117 3117 3116
3089 3088 3087 3087 3086 3086 3085 3085 3084 3084 3083 3083 3082 3082 3082 3082 3081 3080 3080 3079 3078 3078 3078 3077 3077 3077 3077 3078 3077 3077 3078 3078 3078 3079 3079 3081 3082 3082 3083 3084 3085 3085 3086 3087 3088 3089 3090 3091 3092 3095 3096 3097 3098 3098 3099 3100 3100 3100 3100 3099 3099 3098 3096 3096 3098 3101 3103 3104 3105 3107 3106 3105 3103 3102 3106 3107 3109 3112 3114 3116 3117 3117 3116 3115 3116 3116 3115 3115
3087 3086 3086 3085 3085 3084 3084 3083 3083 3082 3082 3081 3081 3081 3081 3080 3080 3079 3078 3078 3077 3077 3076 3076 3076 3076 3076 3076 3075 3076 3076 3076 3077 3077 3078 3080 3081 3082 3082 3083 3084 3084 3085 3086 3087 3088 3089 3090 3092 3094 3096 3097 3097 3097 3098 3098 3097 3097 3097 3095 3095 3096 3094 3093 3095 3099 3101 3102 3103 3105 3105 3104 3101 3100 3102 3105 3108 3111 3113 3114 3115 3115 3114 3114 3115 3115 3115 3114
3085 3085 3084 3083 3083 3083 3082 3081 3081 3081 3080 3080 3079 3079 3079 3079 3078 3078 3077 3076 3076 3075 3075 3075 3075 3075 3075 3074 3075 3076 3075 3075 3075 3076 3077 3079 3081 3082 3081 3082 3083 3084 3085 3085 3086 3087 3088 3090 3092 3093 3094 3095 3096 3096 3096 3093 3093 3093 3094 3093 3092 3092 3092 3090 3093 3097 3099 3100 3101 3102 3103 3102 3101 3100 3102 3105 3108 3110 3111 3112 3113 3114 3113 3113 3113 3113 3113 3112
3083 3083 3082 3082 3081 3081 3080 3080 3079 3079 3079 3078 3078 3078 3078 3077 3077 3076 3075 3075 3075 3074 3074 3074 3074 3075 3074 3074 3075 3075 3074 3073 3074 3076 3076 3077 3079 3080 3080 3082 3083 3083 3084 3085 3086 3088 3089 3090 3092 3092 3093 3093 3093 3094 3092 3089 3090 3090 3090 3091 3090 3089 3090 3088 3090 3093 3095 3098 3099 3100 3101 3101 3101 3101 3103 3105 3107 3108 3110 3111 3111 3112 3111 3111 3111 3111 3111 3111
3081 3081 3080 3080 3079 3079 3079 3078 3078 3077 3077 3077 3076 3076 3076 3076 3075 3075 3074 3073 3073 3073 3073 3073 3072 3073 3073 3073 3074 3074 3072 3072 3074 3075 3076 3077 3078 3079 3080 3081 3082 3083 3085 3086 3086 3087 3089 3090 3091 3091 3090 3091 3091 3091 3090 3088 3087 3087 3087 3089 3088 3087 3088 3088 3088 3090 3094 3096 3097 3098 3098 3099 3100 3100 3102 3103 3105 3106 3108 3109 3109 3109 3109 3109 3109 3109 3109 3109
3079 3079 3078 3078 3077 3077 3077 3077 3076 3076 3075 3075 3075 3075 3075 3075 3075 3074 3072 3071 3071 3071 3071 3071 3071 3072 3072 3073 3074 3073 3071 3072 3073 3075 3075 3076 3077 3079 3080 3081 3082 3084 3085 3086 3086 3087 3089 3089 3089 3088 3088 3089 3089 3089 3089 3087 3086 3086 3086 3086 3086 3086 3086 3087 3088 3090 3093 3094 3095 3096 3096 3097 3098 3099 3100 3101 3103 3104 3106 3107 3106 3106 3107 3107 3107 3108 3108 3108
3077 3077 3076 3075 3075 3075 3075 3075 3075 3074 3074 3074 3074 3074 3074 3074 3075 3073 3070 3069 3070 3069 3069 3069 3069 3070 3072 3073 3073 3072 3071 3072 3074 3075 3074 3075 3077 3079 3080 3081 3082 3083 3084 3086 3087 3087 3088 3087 3086 3087 3087 3088 3088 3088 3088 3087 3088 3088 3086 3085 3085 3085 3084 3086 3087 3089 3092 3093 3093 3094 3095 3095 3096 3097 3097 3098 3100 3101 3103 3104 3104 3105 3106 3105 3105 3106 3106 3107
3075 3074 3074 3073 3073 3073 3073 3073 3073 3073 3073 3072 3072 3073 3073 3073 3072 3071 3069 3068 3068 3067 3067 3067 3067 3068 3069 3070 3070 3070 3071 3072 3073 3074 3073 3074 3077 3078 3079 3080 3082 3083 3084 3085 3086 3086 3086 3085 3085 3086 3086 3086 3086 3087 3087 3087 3089 3088 3088 3086 3085 3084 3083 3084 3086 3088 3091 3092 3092 3092 3093 3093 3094 3094 3095 3096 3098 3099 3101 3102 3102 3103 3104 3103 3104 3104 3104 3105
3072 3072 3071 3071 3070 3070 3070 3071 3071 3071 3071 3071 3071 3072 3071 3071 3070 3070 3068 3066 3066 3066 3066 3065 3065 3066 3066 3067 3067 3066 3069 3072 3073 3073 3072 3073 3076 3078 3079 3080 3081 3083 3083 3084 3084 3084 3084 3082 3083 3084 3084 3085 3085 3086 3087 3088 3088 3088 3087 3086 3084 3083 3082 3083 3086 3088 3090 3091 3090 3091 3091 3091 3092 3093 3094 3095 3097 3098 3099 3100 3101 3101 3103 3103 3102 3103 3103 3103
3070 3069 3069 3068 3068 3068 3068 3069 3069 3069 3069 3069 3070 3070 3070 3070 3069 3069 3067 3065 3063 3063 3064 3064 3064 3064 3065 3065 3065 3065 3068 3070 3072 3072 3070 3072 3076 3077 3079 3080 3081 3082 3081 3082 3083 3082 3082 3080 3082 3083 3083 3084 3086 3086 3087 3087 3087 3087 3086 3085 3083 3082 3082 3083 3085 3087 3089 3089 3089 3089 3089 3088 3090 3092 3093 3093 3095 3096 3096 3098 3099 3100 3102 3102 3100 3101 3102 3102
3067 3067 3066 3066 3066 3065 3065 3066 3067 3067 3068 3068 3068 3068 3069 3069 3068 3068 3066 3065 3062 3060 3061 3062 3061 3062 3062 3063 3062 3063 3067 3068 3070 3072 3069 3070 3075 3076 3078 3079 3079 3080 3080 3081 3082 3081 3080 3079 3080 3082 3082 3084 3085 3085 3085 3086 3085 3085 3084 3083 3082 3082 3082 3083 3085 3087 3087 3086 3086 3088 3086 3084 3087 3090 3091 3092 3092 3093 3094 3096 3097 3099 3100 3100 3099 3100 3101 3102
3065 3064 3064 3064 3063 3063 3063 3064 3064 3065 3066 3066 3066 3067 3067 3067 3068 3067 3066 3065 3062 3060 3060 3060 3060 3060 3059 3060 3061 3063 3067 3066 3068 3071 3068 3069 3073 3075 3077 3078 3077 3078 3079 3080 3081 3080 3079 3077 3079 3081 3082 3083 3083 3083 3084 3084 3084 3082 3081 3082 3082 3082 3082 3082 3084 3085 3084 3083 3083 3085 3083 3081 3084 3087 3088 3090 3091 3092 3093 3094 3096 3098 3098 3098 3098 3098 3099 3099
3062 3062 3062 3062 3061 3061 3061 3061 3062 3064 3064 3064 3064 3065 3066 3066 3067 3067 3067 3065 3060 3058 3058 3058 3058 3058 3058 3059 3059 3063 3065 3064 3066 3068 3067 3067 3071 3074 3075 3076 3076 3076 3078 3079 3078 3077 3077 3077 3078 3079 3081 3081 3082 3081 3082 3083 3082 3080 3080 3081 3082 3082 3082 3083 3084 3083 3082 3083 3083 3084 3083 3080 3081 3084 3085 3088 3090 3091 3092 3092 3093 3095 3095 3096 3096 3097 3098 3094
3060 3060 3060 3059 3059 3059 3059 3059 3060 3061 3062 3062 3063 3064 3065 3066 3066 3066 3068 3065 3058 3056 3057 3056 3056 3056 3057 3058 3058 3061 3063 3062 3064 3066 3065 3067 3070 3072 3073 3074 3076 3076 3076 3077 3075 3074 3075 3076 3077 3078 3079 3080 3079 3079 3080 3081 3081 3079 3080 3081 3081 3082 3082 3083 3083 3081 3082 3083 3081 3080 3081 3079 3079 3082 3084 3086 3088 3089 3090 3090 3091 3092 3093 3094 3094 3096 3094 3087
3059 3058 3058 3058 3057 3057 3057 3057 3057 3058 3059 3060 3061 3063 3063 3065 3066 3066 3068 3065 3056 3054 3055 3054 3055 3055 3056 3057 3058 3061 3062 3062 3064 3063 3064 3066 3068 3071 3072 3073 3075 3075 3075 3075 3074 3073 3074 3075 3076 3077 3078 3078 3077 3077 3078 3079 3079 3079 3080 3080 3081 3081 3081 3082 3081 3080 3082 3082 3078 3078 3080 3078 3078 3080 3083 3084 3085 3086 3087 3089 3089 3090 3092 3092 3092 3095 3090 3084
3057 3056 3056 3056 3055 3055 3055 3055 3055 3056 3057 3058 3060 3061 3062 3064 3065 3065 3066 3061 3054 3053 3054 3053 3054 3054 3054 3056 3057 3059 3061 3062 3063 3063 3064 3066 3067 3069 3071 3071 3073 3073 3074 3073 3072 3073 3073 3073 3074 3075 3076 3076 3076 3076 3077 3078 3078 3079 3079 3080 3080 3080 3080 3081 3080 3080 3081 3080 3077 3077 3078 3077 3075 3078 3081 3082 3083 3085 3086 3086 3087 3088 3089 3090 3091 3092 3087 3088
3055 3054 3054 3054 3053 3053 3053 3052 3053 3054 3055 3057 3058 3060 3061 3063 3064 3063 3060 3056 3053 3051 3052 3053 3053 3053 3053 3055 3056 3058 3060 3061 3062 3062 3063 3065 3066 3067 3068 3069 3070 3071 3072 3072 3071 3072 3072 3072 3073 3073 3074 3074 3075 3075 3076 3077 3077 3078 3079 3078 3078 3078 3078 3078 3078 3079 3079 3078 3075 3075 3077 3077 3076 3077 3079 3081 3082 3083 3085 3086 3087 3088 3087 3089 3091 3090 3087 3092
3053 3052 3052 3052 3051 3051 3051 3051 3051 3052 3053 3055 3057 3058 3060 3062 3061 3058 3055 3055 3052 3049 3050 3052 3052 3052 3053 3054 3055 3056 3058 3059 3059 3061 3062 3063 3064 3065 3066 3067 3068 3068 3068 3069 3069 3070 3071 3071 3072 3072 3073 3073 3075 3075 3075 3076 3077 3077 3077 3076 3075 3076 3077 3076 3075 3075 3076 3074 3074 3074 3075 3076 3076 3076 3078 3080 3081 3082 3084 3086 3086 3086 3087 3088 3089 3088 3089 3093
3051 3050 3050 3050 3049 3049 3049 3049 3049 3050 3051 3053 3055 3057 3059 3059 3055 3054 3054 3053 3049 3048 3049 3051 3051 3052 3052 3053 3054 3054 3056 3057 3057 3059 3060 3061 3062 3063 3064 3065 3066 3066 3065 3066 3067 3067 3069 3070 3070 3071 3071 3072 3073 3072 3072 3074 3075 3075 3074 3074 3073 3073 3077 3077 3073 3072 3072 3072 3073 3075 3075 3074 3076 3077 3078 3080 3081 3082 3083 3084 3084 3085 3086 3086 3085 3087 3090 3092
3049 3049 3048 3048 3047 3047 3047 3047 3048 3048 3049 3051 3053 3056 3057 3055 3051 3052 3052 3050 3048 3048 3049 3050 3050 3051 3051 3051 3051 3052 3054 3055 3055 3057 3058 3059 3060 3061 3062 3063 3064 3064 3064 3065 3064 3064 3065 3065 3066 3068 3069 3069 3071 3070 3070 3072 3073 3073 3073 3073 3072 3071 3074 3075 3071 3070 3070 3070 3072 3075 3076 3074 3074 3076 3078 3079 3080 3080 3081 3081 3082 3083 3083 3083 3083 3085 3088 3090
3047 3047 3046 3046 3045 3045 3045 3045 3046 3047 3048 3049 3052 3053 3052 3050 3050 3050 3049 3048 3047 3048 3048 3049 3050 3049 3049 3049 3049 3050 3051 3052 3053 3055 3055 3056 3057 3057 3058 3059 3061 3062 3063 3063 3062 3062 3062 3061 3062 3065 3066 3068 3069 3069 3070 3070 3070 3071 3072 3071 3070 3070 3072 3071 3070 3071 3072 3071 3071 3073 3075 3074 3074 3076 3078 3079 3080 3079 3079 3080 3081 3082 3081 3080 3081 3083 3084 3086
3045 3045 3044 3044 3043 3043 3043 3043 3044 3045 3046 3048 3050 3049 3047 3047 3048 3048 3047 3047 3046 3046 3047 3048 3048 3047 3047 3048 3048 3048 3048 3049 3050 3052 3052 3053 3054 3054 3056 3057 3058 3060 3060 3061 3061 3061 3061 3060 3061 3063 3065 3066 3067 3068 3069 3069 3068 3069 3070 3068 3068 3070 3070 3069 3070 3072 3075 3074 3072 3071 3073 3073 3074 3076 3077 3079 3080 3079 3079 3080 3081 3082 3082 3081 3080 3081 3082 3083
3043 3043 3042 3042 3041 3041 3041 3041 3042 3043 3044 3046 3046 3045 3045 3046 3046 3046 3046 3046 3046 3046 3046 3045 3045 3045 3045 3046 3046 3046 3047 3047 3048 3048 3049 3050 3050 3051 3053 3055 3056 3058 3059 3060 3061 3061 3061 3060 3060 3062 3063 3065 3066 3067 3068 3068 3067 3068 3068 3068 3068 3069 3070 3069 3069 3069 3072 3073 3070 3069 3072 3071 3071 3074 3076 3078 3080 3079 3078 3079 3079 3081 3082 3081 3080 3081 3082 3083
3041 3040 3040 3040 3039 3039 3039 3039 3040 3041 3042 3043 3043 3043 3044 3044 3044 3044 3045 3045 3046 3046 3046 3044 3043 3043 3044 3044 3044 3044 3045 3045 3046 3046 3047 3047 3047 3048 3051 3052 3053 3056 3058 3059 3060 3061 3062 3061 3060 3061 3062 3063 3065 3066 3066 3066 3067 3066 3067 3068 3068 3067 3068 3069 3069 3069 3070 3070 3068 3067 3069 3070 3070 3071 3074 3077 3078 3077 3077 3078 3079 3080 3081 3080 3080 3081 3082 3083
3040 3039 3038 3038 3038 3038 3038 3037 3038 3039 3040 3041 3041 3041 3041 3042 3042 3043 3043 3044 3045 3045 3044 3043 3042 3042 3043 3043 3042 3043 3044 3044 3045 3046 3045 3046 3046 3046 3049 3051 3051 3054 3056 3058 3059 3060 3062 3061 3060 3060 3061 3062 3063 3064 3063 3064 3065 3066 3067 3067 3067 3066 3066 3067 3068 3068 3067 3067 3067 3067 3066 3068 3069 3070 3073 3075 3075 3075 3076 3077 3079 3080 3081 3081 3081 3082 3083 3083
3038 3038 3037 3036 3036 3036 3036 3036 3036 3037 3038 3038 3039 3039 3040 3040 3040 3041 3042 3043 3044 3044 3043 3042 3042 3042 3043 3043 3042 3042 3043 3043 3044 3044 3044 3045 3046 3046 3048 3050 3051 3053 3055 3057 3058 3059 3060 3061 3060 3060 3061 3060 3060 3061 3061 3062 3062 3064 3065 3065 3065 3065 3066 3066 3066 3066 3065 3064 3065 3065 3064 3066 3069 3071 3073 3072 3072 3074 3075 3077 3078 3080 3081 3082 3082 3083 3083 3084
3038 3037 3036 3035 3035 3034 3034 3035 3035 3036 3036 3037 3037 3038 3038 3039 3039 3039 3041 3041 3042 3042 3042 3041 3041 3042 3042 3042 3041 3041 3042 3042 3042 3044 3044 3044 3045 3046 3048 3049 3050 3052 3053 3055 3057 3057 3058 3059 3059 3060 3060 3059 3058 3058 3060 3060 3060 3061 3062 3063 3063 3063 3064 3065 3064 3065 3065 3063 3062 3062 3064 3067 3070 3071 3072 3071 3072 3074 3075 3076 3078 3080 3081 3082 3082 3083 3084 3084
3038 3037 3035 3034 3033 3033 3033 3033 3033 3034 3035 3035 3036 3036 3036 3036 3036 3038 3039 3039 3039 3040 3041 3041 3041 3042 3042 3041 3041 3041 3041 3041 3042 3043 3044 3045 3045 3045 3046 3048 3050 3051 3052 3054 3055 3055 3056 3058 3058 3058 3058 3058 3057 3057 3058 3059 3059 3060 3059 3060 3061 3062 3062 3062 3061 3063 3063 3062 3062 3062 3063 3067 3070 3070 3071 3071 3073 3075 3076 3077 3078 3078 3079 3081 3082 3083 3083 3085
3038 3037 3034 3033 3032 3032 3032 3032 3032 3033 3033 3033 3034 3034 3035 3035 3035 3037 3037 3037 3038 3039 3040 3040 3041 3041 3041 3041 3041 3041 3041 3041 3041 3042 3043 3044 3045 3046 3046 3047 3049 3051 3051 3052 3053 3053 3056 3058 3057 3056 3057 3057 3057 3057 3058 3059 3059 3059 3058 3059 3060 3060 3061 3062 3061 3062 3062 3061 3062 3061 3062 3067 3070 3070 3071 3073 3075 3076 3076 3076 3076 3077 3079 3080 3081 3082 3083 3085
3037 3036 3034 3032 3031 3031 3032 3032 3031 3031 3031 3032 3032 3032 3033 3034 3034 3035 3036 3036 3037 3037 3038 3039 3040 3040 3040 3041 3041 3040 3041 3041 3041 3041 3042 3043 3044 3046 3047 3048 3049 3050 3051 3051 3051 3053 3055 3057 3057 3057 3057 3058 3058 3057 3057 3058 3059 3058 3058 3059 3059 3059 3061 3061 3061 3063 3063 3062 3062 3062 3062 3067 3070 3070 3071 3073 3075 3076 3075 3075 3075 3077 3079 3080 3081 3082 3083 3085
3036 3036 3034 3032 3031 3031 3031 3031 3030 3029 3029 3030 3031 3031 3031 3032 3033 3033 3034 3035 3035 3036 3037 3037 3038 3039 3039 3039 3040 3040 3040 3041 3040 3041 3042 3042 3043 3044 3046 3047 3048 3049 3050 3049 3050 3052 3055 3056 3057 3058 3058 3059 3059 3059 3059 3059 3058 3057 3057 3058 3058 3059 3060 3061 3060 3061 3061 3062 3063 3064 3065 3068 3070 3070 3071 3072 3073 3074 3074 3074 3075 3077 3078 3080 3081 3082 3083 3084
3036 3036 3035 3033 3031 3030 3030 3029 3028 3028 3029 3029 3030 3030 3030 3031 3032 3032 3032 3033 3033 3035 3036 3036 3037 3037 3037 3038 3039 3039 3039 3040 3040 3041 3041 3042 3043 3043 3045 3046 3046 3047 3047 3048 3050 3052 3053 3054 3056 3057 3058 3058 3060 3061 3061 3060 3057 3056 3056 3057 3058 3059 3059 3060 3060 3060 3059 3060 3062 3063 3064 3067 3069 3070 3071 3072 3072 3072 3072 3073 3075 3077 3078 3079 3081 3082 3083 3084
3036 3036 3034 3032 3031 3030 3030 3029 3027 3028 3028 3028 3029 3029 3030 3031 3032 3031 3032 3033 3033 3034 3035 3035 3036 3036 3037 3037 3037 3038 3038 3039 3039 3040 3041 3041 3042 3043 3043 3044 3045 3045 3046 3047 3049 3051 3052 3054 3054 3055 3057 3058 3059 3060 3060 3059 3057 3056 3055 3057 3058 3058 3058 3060 3060 3059 3060 3060 3061 3063 3064 3064 3067 3069 3070 3072 3072 3073 3072 3073 3075 3077 3077 3078 3080 3081 3082 3084
3036 3035 3033 3032 3031 3030 3029 3028 3027 3027 3026 3026 3028 3029 3029 3031 3031 3031 3031 3032 3033 3034 3034 3035 3035 3035 3036 3036 3037 3037 3037 3038 3039 3039 3040 3041 3042 3043 3043 3043 3043 3044 3046 3047 3048 3050 3052 3052 3053 3054 3056 3056 3057 3058 3058 3059 3058 3057 3057 3059 3059 3057 3057 3059 3059 3059 3060 3060 3061 3064 3065 3065 3068 3070 3069 3070 3072 3073 3073 3074 3074 3075 3076 3077 3079 3080 3082 3083
3035 3034 3032 3031 3031 3030 3029 3027 3026 3026 3025 3025 3027 3028 3029 3031 3031 3031 3032 3032 3032 3033 3034 3034 3034 3035 3035 3035 3036 3036 3036 3037 3038 3038 3039 3039 3041 3042 3042 3043 3043 3043 3045 3047 3048 3049 3050 3050 3051 3054 3055 3055 3055 3056 3057 3058 3059 3059 3059 3059 3059 3058 3057 3057 3057 3058 3059 3060 3061 3063 3065 3066 3068 3069 3068 3069 3070 3072 3073 3074 3074 3075 3075 3077 3079 3081 3082 3083
3034 3033 3032 3032 3032 3031 3029 3027 3026 3026 3025 3025 3026 3027 3028 3030 3031 3032 3031 3032 3032 3033 3033 3034 3034 3034 3034 3034 3035 3034 3034 3035 3036 3037 3038 3039 3040 3041 3041 3042 3043 3043 3045 3047 3047 3047 3049 3049 3050 3053 3054 3053 3054 3055 3055 3056 3057 3057 3058 3058 3059 3059 3057 3055 3056 3057 3059 3061 3061 3062 3063 3064 3066 3067 3068 3068 3070 3071 3073 3073 3073 3074 3076 3077 3079 3081 3082 3083
3033 3033 3032 3032 3033 3032 3030 3028 3028 3027 3026 3026 3026 3026 3027 3029 3031 3032 3031 3031 3032 3033 3033 3033 3033 3034 3034 3033 3032 3032 3033 3034 3035 3036 3037 3039 3040 3040 3040 3041 3043 3044 3045 3046 3046 3046 3047 3049 3050 3051 3052 3051 3051 3053 3054 3055 3056 3056 3057 3057 3058 3058 3057 3056 3056 3057 3059 3061 3063 3064 3064 3065 3066 3068 3068 3068 3069 3070 3071 3072 3073 3074 3074 3076 3078 3080 3082 3083
3033 3033 3032 3033 3034 3033 3031 3030 3029 3028 3027 3026 3027 3027 3027 3028 3029 3031 3031 3030 3031 3032 3032 3032 3032 3033 3033 3031 3031 3032 3033 3034 3034 3035 3037 3038 3038 3039 3040 3040 3042 3043 3045 3045 3045 3046 3047 3048 3049 3050 3050 3049 3050 3052 3053 3054 3056 3054 3053 3055 3056 3057 3058 3058 3057 3057 3058 3060 3063 3064 3065 3066 3068 3069 3068 3067 3067 3068 3068 3070 3071 3071 3072 3072 3073 3075 3078 3079